Location: ????????
(55.4000°N, 39.1167°E)
Time: 03:33:46
(UTC+00:00)

Terra - Pass Details

Date: 19 May 2025
Orbit: 690 x 692 km, 98.0° (Epoch: 15 June)

Event Time Altitude Azimuth Distance (km) Brightness Sun altitude
Rises 19:11:45 0° 202° (SSW) 3,054 4.8 -9.9°
Reaches altitude 10° 19:14:24 10° 217° (SW) 2,143 4.1 -10.1°
Maximum altitude 19:18:08 23° 270° (W) 1,455 3.8 -10.3°
Drops below altitude 10° 19:21:53 10° 322° (NW) 2,156 5.9 -10.6°
Sets 19:24:35 0° 337° (NNW) 3,078 7.3 -10.8°
